Madawaska, ME

12:30 PM EDT on August 25, 2016 (GMT -0400)
Northern Aroostook Regional

Weather History for KFVE - June, 2014

Change the Weather History Date:

Sunday, June 1, 2014

  Actual Average Record
Temperature  
Mean Temperature 59 °F 55 °F  
Max Temperature 74 °F 66 °F 83 °F (2011)
Min Temperature 44 °F 45 °F 37 °F (1998)
Degree Days  
Heating Degree Days 6    
Month to date heating degree days 6  
Since 1 July heating degree days 9894  
Cooling Degree Days 0    
Month to date cooling degree days 0  
Year to date cooling degree days 2  
Growing Degree Days 8 (Base 50)    
Moisture  
Dew Point 42 °F    
Average Humidity 57    
Maximum Humidity 87    
Minimum Humidity 32    
Precipitation  
Precipitation 0.00 in 0.10 in 0.59 in (2011)
Month to date precipitation 0.00 0.10  
Year to date precipitation 10.37 10.00  
Sea Level Pressure  
Sea Level Pressure 30.21 in    
Wind  
Wind Speed 6 mph (SSW)    
Max Wind Speed 15 mph    
Max Gust Speed 20 mph    
Visibility 10 miles    
Events      
T = Trace of Precipitation, MM = Missing Value Source: NWS Daily Summary

Daily Weather History Graph

Daily Weather History Graph

Search for Another Location

Airport or City:

Trip Planner

Search our weather history database for the weather conditions in past years. The results will help you decide how hot, cold, wet, or windy it might be!

Date:

Astronomy

Jun. 01, 2014 Rise Set
Actual Time 4:40 AM EDT 8:21 PM EDT
Civil Twilight 4:02 AM EDT 9:00 PM EDT
Nautical Twilight 3:09 AM EDT 9:53 PM EDT
Astronomical Twilight 1:57 AM EDT 11:06 PM EDT
Moon 8:17 AM EDT (6/1) 11:05 PM EDT (6/1)
Length of Visible Light 16h 58m
Length of Day
15h 40m
Waxing Crescent, 14% of the Moon is Illuminated
Jun 1
Waxing Crescent
Jun 5
First Quarter
Jun 13
Full
Jun 19
Last Quarter
Jun 27
New

Hourly Weather History & Observations

Time (EDT) Temp. Windchill Dew Point Humidity Pressure Visibility Wind Dir Wind Speed Gust Speed Precip Events Conditions
12:53 AM 48.0 °F - 43.0 °F 83% 30.30 in 10.0 mi NNE 3.5 mph - N/A   Clear
1:53 AM 48.9 °F - 42.1 °F 77% 30.29 in 10.0 mi East 6.9 mph - N/A   Clear
2:53 AM 46.9 °F - 42.1 °F 83% 30.29 in 10.0 mi East 6.9 mph - N/A   Clear
3:53 AM 46.0 °F 43.9 °F 42.1 °F 86% 30.29 in 10.0 mi East 4.6 mph - N/A   Clear
4:53 AM 44.6 °F 43.1 °F 41.0 °F 87% 30.29 in 10.0 mi East 3.5 mph - N/A   Clear
5:53 AM 46.0 °F 44.8 °F 42.1 °F 86% 30.30 in 10.0 mi SE 3.5 mph - N/A   Clear
6:53 AM 48.0 °F - 42.1 °F 80% 30.31 in 10.0 mi SE 4.6 mph - N/A   Clear
7:53 AM 50.0 °F - 44.1 °F 80% 30.30 in 10.0 mi South 5.8 mph - N/A   Clear
8:53 AM 54.0 °F - 46.9 °F 77% 30.30 in 10.0 mi SSW 4.6 mph - N/A   Clear
9:53 AM 57.2 °F - 46.4 °F 67% 30.28 in 10.0 mi SSE 4.6 mph - N/A   Clear
10:53 AM 64.0 °F - 48.0 °F 56% 30.27 in 10.0 mi North - - N/A   Clear
11:53 AM 68.0 °F - 42.1 °F 39% 30.24 in 10.0 mi West 13.8 mph - N/A   Clear
12:53 PM 70.0 °F - 41.0 °F 35% 30.21 in 10.0 mi Variable 5.8 mph - N/A   Clear
1:53 PM 69.1 °F - 39.9 °F 35% 30.18 in 10.0 mi SSW 13.8 mph - N/A   Clear
2:53 PM 71.1 °F - 39.9 °F 32% 30.16 in 10.0 mi Variable 6.9 mph - N/A   Clear
3:53 PM 71.1 °F - 39.9 °F 32% 30.15 in 10.0 mi West 6.9 mph 17.3 mph N/A   Partly Cloudy
4:53 PM 70.0 °F - 42.1 °F 36% 30.14 in 10.0 mi WSW 6.9 mph - N/A   Overcast
5:53 PM 70.0 °F - 41.0 °F 35% 30.12 in 10.0 mi WNW 5.8 mph - N/A   Overcast
6:53 PM 68.0 °F - 42.1 °F 39% 30.11 in 10.0 mi West 5.8 mph - N/A   Partly Cloudy
7:53 PM 66.0 °F - 39.9 °F 38% 30.11 in 10.0 mi West 6.9 mph - N/A   Clear
8:53 PM 64.0 °F - 41.0 °F 43% 30.11 in 10.0 mi West 6.9 mph - N/A   Overcast
9:53 PM 64.0 °F - 39.9 °F 41% 30.10 in 10.0 mi WSW 5.8 mph - N/A   Overcast
10:53 PM 62.6 °F - 41.0 °F 45% 30.10 in 10.0 mi SSW 3.5 mph - N/A   Overcast
11:53 PM 61.0 °F - 41.0 °F 48% 30.08 in 10.0 mi SSW 4.6 mph - N/A   Mostly Cloudy